PALAPA B1

导读 | 豆包AI

PALAPA B1是印度尼西亚PALAPA-B系列通信卫星的首星,于1983年6月18日由美国航天飞机STS-7任务发射升空。该卫星基于休斯公司HS-376平台研制,发射质量约1200千克,配置24路C波段转发器,设计寿命8年,定点于东经108度地球同步轨道,主要服务印尼国内通信及东盟区域通信、电视广播业务,延续了PALAPA系统的运营服务。

基本信息
目录编号:
14134
目录名称:
PALAPA B1
国际标识:
1983-059C
轨道中心:
EARTH
卫星名称:
PALAPA B1
卫星全名:
--
卫星状态:
在轨 (已飞行15658 天)
发射日期:
1983-06-18 UTC
国别 :
印度尼西亚 (ID)
星等 :
--
轨道信息
数据来源 国际轨道数据 AOE轨道数据
星历时间 2026-05-01T02:37:18+0800
12小时前
查看轨道信息
2026-05-01T03:00:00+0800
12小时前
查看轨道信息
半长轴 42189.725km 42189.781km
偏心率 0.0002515 0.0002522
轨道倾角 11.648° 11.648°
近地点辐角 82.834° 84.546°
升交点赤经 329.822° 329.821°
平近点角 104.656° 108.627°
近地点 35800.977km 35801.003km
远地点 35822.199km 35822.285km
周期 1437.374分钟 1437.377分钟
每日圈数 1.001827 1.001825
详细信息
使用方式:
暂无
2D轨道图
3D轨道图
轨道高度分析图
轨道倾角分析图
轨道综合分析图
查看轨道综合分析图